When you browse on this site, cookies collect data to enhance your experience and personalize the content and advertising you see.
Visit our Privacy Policy to learn more. By continuing to use the site, you agree to this use of cookies and data.
  • In France
  • List of Countries
  • For 7 days
  • Water Temperature
  • Satellite Maps
  • Weather Map
  • Weather Widgets
  • user-avatar
    Login

    Hourly Weather Darwin

    Today, 24 March, Sunday

    Time Temperature Precipitation Wind Pressure Humidity
    00:00 +30°C° 0.1 mm 7 mps 754 mmHg 79%
    01:00 +30°C° 3.9 mm 6 mps 754 mmHg 82%
    02:00 +29°C° 3.9 mm 6 mps 754 mmHg 85%
    03:00 +29°C° 0 mm 6 mps 754 mmHg 88%
    04:00 +29°C° 1.5 mm 6 mps 754 mmHg 88%
    05:00 +29°C° 1.5 mm 5 mps 754 mmHg 87%
    06:00 +29°C° 1.5 mm 5 mps 754 mmHg 87%
    07:00 +30°C° 0 mm 5 mps 755 mmHg 85%
    08:00 +30°C° 0 mm 5 mps 755 mmHg 84%
    09:00 +30°C° 0 mm 5 mps 756 mmHg 81%
    10:00 +33°C° 0.1 mm 5 mps 756 mmHg 77%
    11:00 +34°C° 0.1 mm 5 mps 756 mmHg 72%
    12:00 +35°C° 0.1 mm 5 mps 755 mmHg 67%
    13:00 +35°C° 0.2 mm 6 mps 755 mmHg 66%
    14:00 +35°C° 0.2 mm 6 mps 755 mmHg 65%
    15:00 +35°C° 0.2 mm 6 mps 754 mmHg 64%
    16:00 +34°C° 0.1 mm 6 mps 755 mmHg 69%
    17:00 +33°C° 0.1 mm 5 mps 755 mmHg 73%
    18:00 +32°C° 0.1 mm 5 mps 755 mmHg 78%
    19:00 +32°C° 0 mm 5 mps 755 mmHg 80%
    20:00 +32°C° 0 mm 5 mps 755 mmHg 81%
    21:00 +32°C° 0 mm 4 mps 755 mmHg 83%
    22:00 +30°C° 0.3 mm 4 mps 756 mmHg 84%
    23:00 +30°C° 0.3 mm 4 mps 756 mmHg 85%

    Tomorrow, 25 March, Monday

    Time Temperature Precipitation Wind Pressure Humidity
    00:00 +30°C° 0.3 mm 4 mps 756 mmHg 86%
    01:00 +30°C° 0.5 mm 5 mps 756 mmHg 87%
    02:00 +30°C° 0.5 mm 5 mps 755 mmHg 87%
    03:00 +30°C° 0.5 mm 5 mps 755 mmHg 88%
    04:00 +30°C° 1.4 mm 5 mps 756 mmHg 89%
    05:00 +29°C° 1.4 mm 5 mps 756 mmHg 90%
    06:00 +29°C° 1.4 mm 4 mps 756 mmHg 91%
    07:00 +30°C° 0.3 mm 4 mps 756 mmHg 88%
    08:00 +30°C° 0.3 mm 4 mps 757 mmHg 86%
    09:00 +32°C° 0.3 mm 4 mps 757 mmHg 83%
    10:00 +33°C° 0 mm 4 mps 757 mmHg 79%
    11:00 +34°C° 0 mm 5 mps 757 mmHg 75%
    12:00 +35°C° 0 mm 5 mps 756 mmHg 71%
    13:00 +35°C° 0 mm 5 mps 756 mmHg 70%
    14:00 +35°C° 0 mm 5 mps 755 mmHg 70%
    15:00 +35°C° 0 mm 6 mps 755 mmHg 69%
    16:00 +34°C° 0.4 mm 5 mps 755 mmHg 75%
    17:00 +33°C° 0.4 mm 5 mps 756 mmHg 81%
    18:00 +32°C° 0.4 mm 4 mps 756 mmHg 86%
    19:00 +30°C° 0 mm 4 mps 756 mmHg 87%
    20:00 +30°C° 0 mm 4 mps 757 mmHg 87%
    21:00 +30°C° 0 mm 4 mps 757 mmHg 88%
    22:00 +30°C° 0 mm 4 mps 757 mmHg 88%
    23:00 +30°C° 0 mm 4 mps 757 mmHg 88%

    Day after tomorrow, 26 March, Tuesday

    Time Temperature Precipitation Wind Pressure Humidity
    00:00 +30°C° 0 mm 4 mps 757 mmHg 89%
    01:00 +30°C° 0 mm 4 mps 757 mmHg 88%
    02:00 +30°C° 0 mm 5 mps 756 mmHg 88%
    03:00 +30°C° 0 mm 5 mps 756 mmHg 88%
    04:00 +30°C° 0.6 mm 5 mps 756 mmHg 88%
    05:00 +30°C° 0.6 mm 5 mps 757 mmHg 88%
    06:00 +30°C° 0.6 mm 5 mps 757 mmHg 89%
    07:00 +30°C° 0.7 mm 5 mps 757 mmHg 88%
    08:00 +30°C° 0.7 mm 4 mps 758 mmHg 87%
    09:00 +30°C° 0.7 mm 4 mps 758 mmHg 86%
    10:00 +32°C° 0 mm 4 mps 758 mmHg 82%
    11:00 +33°C° 0 mm 5 mps 757 mmHg 78%
    12:00 +34°C° 0 mm 5 mps 757 mmHg 73%
    13:00 +34°C° 1.2 mm 5 mps 756 mmHg 73%
    14:00 +34°C° 1.2 mm 5 mps 756 mmHg 73%
    15:00 +34°C° 1.2 mm 5 mps 755 mmHg 74%
    16:00 +33°C° 0 mm 4 mps 755 mmHg 75%
    17:00 +33°C° 0 mm 4 mps 755 mmHg 77%
    18:00 +32°C° 0 mm 4 mps 755 mmHg 79%
    19:00 +31°C° 0 mm 3 mps 756 mmHg 80%
    20:00 +31°C° 0 mm 3 mps 757 mmHg 80%
    21:00 +30°C° 0 mm 2 mps 757 mmHg 81%
    22:00 +30°C° 0.5 mm 2 mps 757 mmHg 82%
    23:00 +30°C° 0.5 mm 2 mps 757 mmHg 83%

    27 March, Wednesday

    Time Temperature Precipitation Wind Pressure Humidity
    00:00 +30°C° 0.5 mm 1 mps 757 mmHg 83%
    01:00 +30°C° 0.1 mm 2 mps 756 mmHg 83%
    02:00 +30°C° 0.1 mm 2 mps 756 mmHg 83%
    03:00 +30°C° 0.1 mm 3 mps 755 mmHg 83%
    04:00 +30°C° 2.2 mm 3 mps 756 mmHg 84%
    05:00 +29°C° 2.2 mm 3 mps 756 mmHg 85%
    06:00 +29°C° 2.2 mm 4 mps 756 mmHg 87%
    07:00 +30°C° 0.4 mm 4 mps 757 mmHg 85%
    08:00 +30°C° 0.4 mm 4 mps 757 mmHg 84%
    09:00 +32°C° 0.4 mm 4 mps 758 mmHg 83%
    10:00 +33°C° 0 mm 4 mps 757 mmHg 77%
    11:00 +34°C° 0 mm 4 mps 757 mmHg 71%
    12:00 +35°C° 0 mm 4 mps 757 mmHg 65%
    13:00 +35°C° 0.2 mm 3 mps 756 mmHg 64%
    14:00 +35°C° 0.2 mm 3 mps 755 mmHg 64%
    15:00 +36°C° 0.2 mm 3 mps 755 mmHg 63%
    16:00 +34°C° 1.4 mm 3 mps 755 mmHg 69%
    17:00 +33°C° 1.4 mm 3 mps 755 mmHg 75%
    18:00 +31°C° 1.4 mm 3 mps 755 mmHg 81%
    19:00 +30°C° 1.2 mm 3 mps 756 mmHg 83%
    20:00 +30°C° 1.2 mm 3 mps 756 mmHg 84%
    21:00 +29°C° 1.2 mm 3 mps 756 mmHg 86%
    22:00 +29°C° 0.3 mm 3 mps 756 mmHg 86%
    23:00 +29°C° 0.3 mm 3 mps 756 mmHg 86%

    28 March, Thursday

    Time Temperature Precipitation Wind Pressure Humidity
    00:00 +29°C° 0.3 mm 4 mps 756 mmHg 87%
    01:00 +29°C° 0.8 mm 4 mps 756 mmHg 87%
    02:00 +29°C° 0.8 mm 3 mps 755 mmHg 87%
    03:00 +29°C° 0.8 mm 3 mps 755 mmHg 87%
    04:00 +29°C° 0.5 mm 3 mps 755 mmHg 87%
    05:00 +29°C° 0.5 mm 3 mps 755 mmHg 87%
    06:00 +29°C° 0.5 mm 3 mps 755 mmHg 87%
    07:00 +30°C° 0.9 mm 3 mps 756 mmHg 84%
    08:00 +31°C° 0.9 mm 3 mps 756 mmHg 82%
    09:00 +33°C° 0.9 mm 4 mps 757 mmHg 79%
    10:00 +34°C° 0.4 mm 4 mps 756 mmHg 71%
    11:00 +35°C° 0.4 mm 4 mps 756 mmHg 64%
    12:00 +36°C° 0.4 mm 4 mps 755 mmHg 56%
    13:00 +36°C° 0.4 mm 4 mps 755 mmHg 58%
    14:00 +36°C° 0.4 mm 5 mps 754 mmHg 59%
    15:00 +36°C° 0.4 mm 5 mps 753 mmHg 60%
    16:00 +34°C° 0.2 mm 5 mps 754 mmHg 67%
    17:00 +33°C° 0.2 mm 5 mps 754 mmHg 74%
    18:00 +32°C° 0.2 mm 5 mps 754 mmHg 81%
    19:00 +32°C° 0.2 mm 4 mps 755 mmHg 81%
    20:00 +30°C° 0.2 mm 4 mps 755 mmHg 81%
    21:00 +30°C° 0.2 mm 3 mps 755 mmHg 80%
    22:00 +30°C° 0.2 mm 3 mps 755 mmHg 80%
    23:00 +30°C° 0.2 mm 3 mps 755 mmHg 80%

    29 March, Friday

    Time Temperature Precipitation Wind Pressure Humidity
    00:00 +30°C° 0.2 mm 3 mps 755 mmHg 80%
    01:00 +30°C° 0.4 mm 3 mps 755 mmHg 81%
    02:00 +29°C° 0.4 mm 3 mps 754 mmHg 81%
    03:00 +29°C° 0.4 mm 3 mps 754 mmHg 82%
    04:00 +29°C° 0.2 mm 3 mps 754 mmHg 82%
    05:00 +29°C° 0.2 mm 3 mps 755 mmHg 82%
    06:00 +29°C° 0.2 mm 2 mps 755 mmHg 82%
    07:00 +30°C° 0.3 mm 3 mps 755 mmHg 77%
    08:00 +31°C° 0.3 mm 3 mps 756 mmHg 73%
    09:00 +34°C° 0.3 mm 3 mps 756 mmHg 68%
    10:00 +35°C° 0.8 mm 3 mps 755 mmHg 63%
    11:00 +35°C° 0.8 mm 3 mps 755 mmHg 58%
    12:00 +36°C° 0.8 mm 3 mps 755 mmHg 54%
    13:00 +37°C° 0 mm 4 mps 754 mmHg 52%
    14:00 +37°C° 0 mm 4 mps 754 mmHg 51%
    15:00 +37°C° 0 mm 4 mps 753 mmHg 49%
    16:00 +36°C° 0.1 mm 4 mps 753 mmHg 58%
    17:00 +34°C° 0.1 mm 4 mps 754 mmHg 66%
    18:00 +33°C° 0.1 mm 5 mps 754 mmHg 74%
    19:00 +32°C° 0.1 mm 4 mps 754 mmHg 76%
    20:00 +32°C° 0.1 mm 4 mps 755 mmHg 77%
    21:00 +30°C° 0.1 mm 3 mps 755 mmHg 79%
    22:00 +30°C° 0.5 mm 3 mps 755 mmHg 79%
    23:00 +30°C° 0.5 mm 3 mps 755 mmHg 80%
    Show more